DW8248 Weather Reports


time (UTC)temp
C
wind
direction
speed
KPH
gust
KPH
rain 1hr
cm
rain 24hr
cm
rain mn
cm
humidity
%
barometer
mb
20260902123112 27 355 4.8 11.3 0.00 1.30 1.30 89 1015.2
20260902122044 27 334 4.8 8.0 0.00 1.30 1.30 89 1015.1
20260902121026 27 315 4.8 6.4 0.00 1.30 1.30 89 1015.2
20260902120042 27 327 0.0 4.8 0.00 1.30 1.30 89 1015.2
20260902115007 27 350 0.0 0.0 0.00 1.30 1.30 89 1015.2
20260902114007 27 332 0.0 0.0 0.00 1.30 1.30 88 1015.0
20260902112953 27 331 0.0 0.0 0.00 1.30 1.30 88 1014.8
20260902111928 27 342 0.0 0.0 0.00 1.30 1.30 88 1014.9
20260902110901 27 355 0.0 0.0 0.00 1.30 1.30 88 1014.7
20260902105844 27 305 0.0 0.0 0.00 1.30 1.30 87 1014.5
20260902104900 27 315 0.0 3.2 0.00 1.30 1.30 87 1014.5
20260902103846 27 16 0.0 0.0 0.00 1.30 1.30 87 1014.3
20260902102844 27 16 0.0 0.0 0.00 1.30 1.30 86 1014.4
20260902101813 27 16 0.0 0.0 0.00 1.30 1.30 85 1014.2
20260902100821 27 10 0.0 0.0 0.00 1.30 1.30 85 1014.2
20260902095747 27 344 1.6 9.7 0.00 1.30 1.30 84 1014.1
20260902094715 27 304 4.8 11.3 0.00 1.30 1.30 85 1014.3
20260902093733 27 337 6.4 11.3 0.00 1.30 1.30 86 1014.2
20260902092700 27 309 6.4 12.9 0.00 1.30 1.30 86 1014.2
20260902090556 26 285 1.6 9.7 2.90 1.12 1.17 87 1014.2
20260902085606 26 253 9.7 20.9 2.11 0.41 0.46 87 1014.1
20260902084539 27 192 16.1 20.9 2.44 0.00 0.05 86 1014.0
20260902083535 27 215 14.5 17.7 0.00 0.00 0.00 85 1013.8
20260902082540 27 217 11.3 16.1 0.00 0.00 0.00 87 1013.9
20260902081514 27 209 12.9 16.1 0.00 0.00 0.00 87 1014.0
20260902080458 27 260 9.7 14.5 0.00 0.00 0.00 87 1014.0
20260902075514 27 281 11.3 14.5 0.00 0.00 0.00 86 1014.0
20260902073341 27 327 4.8 8.0 0.00 0.00 0.00 86 1013.9
20260902072357 28 321 4.8 8.0 0.00 0.00 0.00 86 1014.0
20260902071328 27 325 3.2 6.4 0.00 0.00 0.00 86 1014.1
20260902070254 27 5 3.2 4.8 0.00 0.00 0.00 86 1014.1
20260902065308 27 350 3.2 6.4 0.00 0.00 0.00 86 1014.1
20260902063214 28 340 4.8 9.7 0.00 0.00 0.00 86 1014.3
20260902062235 27 310 3.2 6.4 0.00 0.00 0.00 86 1014.2
20260902061215 28 346 1.6 4.8 0.00 0.00 0.00 86 1014.3
20260902053855 28 350 1.6 3.2 0.00 0.00 0.00 84 1014.6
20260902052840 28 14 1.6 4.8 0.00 0.00 0.00 84 1014.6
20260902051838 28 20 1.6 9.7 0.00 0.00 0.00 84 1014.5
20260902050850 28 33 3.2 9.7 0.00 0.00 0.00 84 1014.4
20260902044719 28 355 0.0 0.0 0.00 0.00 0.00 84 1014.6
20260902043714 28 348 0.0 0.0 0.00 0.00 0.00 84 1014.6
20260902042726 28 5 0.0 0.0 0.00 0.00 0.00 84 1014.6
20260902041715 28 15 1.6 6.4 0.00 0.00 0.00 84 1014.7
20260902040642 28 35 1.6 6.4 0.00 0.00 0.00 83 1014.7
20260902035635 28 355 3.2 9.7 0.00 0.00 0.00 83 1014.7
20260902031235 28 0 3.2 9.7 0.00 0.00 0.00 83 1015.3
20260902030206 28 355 4.8 11.3 0.00 0.00 0.00 83 1015.4
20260902025151 28 355 6.4 11.3 0.00 0.00 0.00 83 1015.6
20260902024115 28 38 8.0 14.5 0.00 0.00 0.00 82 1015.7
20260902023039 28 34 8.0 14.5 0.00 0.00 0.00 82 1015.5
20260902022021 28 339 8.0 16.1 0.00 0.00 0.00 82 1015.5
20260902015833 28 0 6.4 12.9 0.00 0.00 0.00 82 1015.4
20260902014758 28 15 4.8 12.9 0.00 0.00 0.00 82 1015.6
20260902012640 28 355 8.0 16.1 0.00 0.00 0.00 80 1015.2
20260902011614 28 355 4.8 12.9 0.00 0.00 0.00 80 1015.1
20260902010556 28 5 8.0 14.5 0.00 0.00 0.00 81 1015.1
20260902005617 28 0 8.0 16.1 0.00 0.00 0.00 82 1015.1
20260902004545 28 348 8.0 16.1 0.00 0.00 0.00 82 1015.1
20260902003508 28 355 4.8 12.9 0.00 0.00 0.00 82 1015.1
20260902001405 28 0 6.4 14.5 0.00 0.00 0.00 82 1015.2
20260902000407 28 351 6.4 14.5 0.00 0.00 0.00 81 1015.2
20260901235411 28 15 4.8 11.3 0.00 0.00 0.00 82 1015.2
20260901234336 28 0 4.8 14.5 0.00 0.00 0.00 82 1015.2
20260901233327 28 9 6.4 14.5 0.00 0.00 0.00 81 1015.0
20260901232324 28 344 8.0 16.1 0.00 0.00 0.00 81 1015.0
20260901231330 28 9 8.0 16.1 0.00 0.00 0.00 81 1014.9
20260901230341 29 18 9.7 16.1 0.00 0.00 0.00 80 1014.8
20260901225319 29 24 9.7 16.1 0.00 0.00 0.00 78 1014.7
20260901224333 29 37 6.4 12.9 0.00 0.00 0.00 78 1014.7
20260901223311 29 351 6.4 16.1 0.00 0.00 0.00 79 1014.7
20260901222317 29 34 8.0 16.1 0.00 0.00 0.00 78 1014.5
20260901221318 29 57 9.7 19.3 0.00 0.00 0.00 76 1014.5
20260901220338 29 355 9.7 19.3 0.00 0.00 0.00 77 1014.4
20260901215335 29 43 9.7 19.3 0.00 0.00 0.00 78 1014.3
20260901214316 29 45 9.7 19.3 0.00 0.00 0.00 78 1014.2
20260901213307 30 49 11.3 20.9 0.00 0.00 0.00 80 1014.2
20260901212249 30 30 12.9 20.9 0.00 0.00 0.00 79 1014.2
20260901211227 30 45 12.9 22.5 0.00 0.00 0.00 79 1014.4
20260901210209 30 17 12.9 22.5 0.00 0.00 0.00 77 1014.5
20260901204028 30 42 14.5 25.7 0.00 0.00 0.00 76 1014.6
20260901203041 30 29 12.9 24.1 0.00 0.00 0.00 76 1014.6
20260901202103 30 25 14.5 24.1 0.00 0.00 0.00 74 1014.7
20260901201039 30 28 12.9 22.5 0.00 0.00 0.00 74 1014.8
20260901194837 30 22 12.9 20.9 0.00 0.00 0.00 74 1014.9
20260901193808 30 0 11.3 19.3 0.00 0.00 0.00 75 1015.1
20260901190527 30 350 11.3 20.9 0.00 0.00 0.00 76 1015.1
20260901184335 30 25 12.9 24.1 0.00 0.00 0.00 76 1015.3
20260901183258 30 44 14.5 24.1 0.00 0.00 0.00 77 1015.4
20260901182305 30 51 12.9 22.5 0.00 0.00 0.00 77 1015.5
20260901181319 30 54 12.9 22.5 0.00 0.00 0.00 77 1015.5
20260901180322 30 56 12.9 22.5 0.00 0.00 0.00 77 1015.6
20260901175334 30 5 12.9 20.9 0.00 0.00 0.00 78 1015.8
20260901174348 30 348 12.9 22.5 0.00 0.00 0.00 78 1016.0
20260901173322 30 0 14.5 22.5 0.00 0.00 0.00 77 1016.3
20260901172325 30 9 11.3 19.3 0.00 0.00 0.00 77 1016.4
20260901171324 30 32 11.3 20.9 0.00 0.00 0.00 76 1016.2
20260901170303 30 53 12.9 20.9 0.00 0.00 0.00 76 1016.3
20260901165300 30 12 12.9 20.9 0.00 0.00 0.00 77 1016.4
20260901164250 30 40 11.3 20.9 0.00 0.00 0.00 78 1016.4
20260901163215 30 15 12.9 22.5 0.00 0.00 0.00 78 1016.5
20260901162230 30 15 14.5 22.5 0.00 0.00 0.00 79 1016.5
20260901161210 30 36 12.9 19.3 0.00 0.00 0.00 79 1016.6
20260901160223 30 44 12.9 19.3 0.00 0.00 0.00 79 1016.6
20260901155245 30 0 11.3 17.7 0.00 0.00 0.00 78 1016.7
20260901152018 29 346 14.5 19.3 0.00 0.00 0.00 78 1016.8
20260901151022 30 24 11.3 19.3 0.00 0.00 0.00 77 1016.8
20260901150013 29 329 11.3 19.3 0.00 0.00 0.00 79 1016.6
20260901145021 29 47 11.3 17.7 0.00 0.00 0.00 80 1016.8
20260901144000 29 355 11.3 17.7 0.00 0.00 0.00 81 1016.8
20260901143014 29 355 11.3 17.7 0.00 0.00 0.00 81 1016.7
20260901135701 29 12 8.0 14.5 0.00 0.00 0.00 81 1016.4
20260901134717 29 346 9.7 14.5 0.00 0.00 0.00 82 1016.3
20260901132525 29 344 8.0 16.1 0.00 0.00 0.00 80 1016.1
20260901131513 29 347 8.0 14.5 0.00 0.00 0.00 80 1016.1
20260901130536 29 350 6.4 12.9 0.00 0.00 0.00 81 1016.0
20260901125542 29 351 8.0 11.3 0.00 0.00 0.00 81 1016.0
20260901124558 29 5 4.8 9.7 0.00 0.00 0.00 81 1015.9
20260901123615 29 19 3.2 9.7 0.00 0.00 0.00 83 1015.8